« Back
NWS Peachtree City, Ga » Text Product » GA Regional Weather Roundup


Printer-friendly Version
Current Version              Previous Versions:   1  2  3  4  5  6  7  8  9  

Regional Weather Roundup

470
ASUS42 KFFC 160703
RWRGA
WEATHER ROUNDUP FOR GEORGIA
NATIONAL WEATHER SERVICE PEACHTREE CITY GA
300 AM EDT TUE SEP 16 2014

NOTE: "FAIR" INDICATES FEW OR NO CLOUDS BELOW 12,000 FEET WITH NO
SIGNIFICANT WEATHER AND/OR OBSTRUCTIONS TO VISIBILITY.

* = USE WITH CAUTION. THE STATIONS MARKED WITH AN ASTERISK MAY NOT
REPORT WEATHER SUCH AS PRECIPITATION, FOG, OR THUNDER AND ARE NOT
QUALITY CONTROLLED BY NWS.

THE REMARK "TC" DENOTES TEMPERATURE READING IN DEGREES CELSIUS.

GAZ001>058-160800-
NORTH GEORGIA

CITY           SKY/WX    TMP DP  RH WIND       PRES   REMARKS
ATLANTA        CLOUDY    72  70  93 CALM      30.10F
ATHENS         MOCLDY    71  69  93 CALM      30.10F
CHAMBLEE       MOCLDY    70  68  93 CALM      30.11F FOG
PEACHTREE CITY CLOUDY    71  70  96 S3        30.11F FOG
ROME           CLOUDY    71  70  96 CALM      30.10F FOG
WEST ATLANTA   MOCLDY    72  70  93 CALM      30.10F
GAINESVILLE    CLOUDY    70  68  93 CALM      30.15S FOG
CARTERSVILLE   CLOUDY    70  69  97 CALM      30.11F FOG


CITY           SKY/WX    TMP DP  RH WIND       PRES   REMARKS
DALTON*        CLOUDY    68  68 100 CALM      30.11F FOG
MARIETTA       MOCLDY    71  71  99 NW2       30.12F
$$

GAZ059>098-102>109-160800-
CENTRAL GEORGIA

CITY           SKY/WX    TMP DP  RH WIND       PRES   REMARKS
AUGUSTA-BUSH   CLOUDY    73  72  96 CALM      30.07S FOG
AUGUSTA-DANIEL MOCLDY    74  72  93 NW3       30.09S FOG
COLUMBUS       PTCLDY    74  71  91 CALM      30.08S
MACON          PTCLDY    70  70 100 CALM      30.07F
ROBINS AFB     PTCLDY    71  70  97 SE3       30.07F


CITY           SKY/WX    TMP DP  RH WIND       PRES   REMARKS
LAGRANGE*      MOCLDY    74  73  99 CALM      30.10S FOG
SYLVANIA*      CLOUDY    73  73  98 CALM      30.08F FOG
MILLEDGEVILLE* CLOUDY    73  73 100 CALM      30.09S FOG
$$

GAZ099>101-110>166-160800-
SOUTH GEORGIA

CITY           SKY/WX    TMP DP  RH WIND       PRES   REMARKS
SAVANNAH       CLOUDY    75  72  90 CALM      30.07S
VALDOSTA       CLOUDY    75  73  93 CALM      30.07F
ALMA           MOCLDY    72  71  97 CALM      30.08F
ST SIMONS      CLOUDY    76  73  91 W3        30.06F
FT STEWART     LGT RAIN  74  73  96 CALM      30.05F
ALBANY         CLOUDY    76  74  93 CALM      30.09S
HUNTER AFB     FOG       74  74 100 W5        30.05S VSB 1/2
MOODY AFB      CLOUDY    74  73  95 S6        30.08F
BRUNSWICK      CLOUDY    73  72  94 CALM      30.07F


CITY           SKY/WX    TMP DP  RH WIND       PRES   REMARKS
BAINBRIDGE*    CLOUDY    79  77  94 SW3       30.08R
MOULTRIE*      CLOUDY    75  75 100 S3        30.08F
VIDALIA*       FOG       73  73 100 CALM      30.08F VSB 1/4
WAYCROSS*      MOCLDY    76  76  99 CALM      30.08F
DOUGLAS*       MOCLDY    73  73 100 E3        30.10F
$$



USA.gov is the U.S. government's official web portal to all federal, state and local government web resources and services.